GW1469 Weather Reports


time (UTC)temp
C
wind
direction
speed
KPH
gust
KPH
rain 1hr
cm
rain 24hr
cm
rain mn
cm
humidity
%
barometer
mb
20260508043936 6 110 0.0 0.0 0.00 0.00 0.00 99 1026.4
20260508043347 6 110 0.0 0.0 0.00 0.00 0.00 99 1026.0
20260508042723 6 110 0.0 0.0 0.00 0.00 0.00 99 1026.0
20260508042141 6 110 0.0 0.0 0.00 0.00 0.00 99 1026.0
20260508041532 6 110 0.0 0.0 0.00 0.00 0.00 99 1025.3
20260508040318 6 110 0.0 0.0 0.00 0.00 0.03 99 1025.7
20260508035120 6 110 0.0 0.0 0.00 0.00 0.03 99 1025.7
20260508034526 6 110 0.0 0.0 0.00 0.00 0.03 99 1025.7
20260508033916 6 110 0.0 0.0 0.00 0.00 0.03 99 1025.3
20260508033321 6 110 0.0 0.0 0.00 0.00 0.03 99 1025.7
20260508032734 6 110 0.0 0.0 0.00 0.00 0.03 99 1025.7
20260508032147 6 110 0.0 0.0 0.00 0.00 0.03 99 1025.7
20260508031526 6 110 0.0 0.0 0.00 0.00 0.03 99 1025.3
20260508030931 6 110 0.0 0.0 0.00 0.00 0.03 99 1025.7
20260508030311 6 110 0.0 0.0 0.00 0.00 0.03 99 1025.3
20260508025719 6 110 0.0 0.0 0.00 0.00 0.03 99 1025.7
20260508025114 6 110 0.0 0.0 0.00 0.00 0.03 99 1025.3
20260508024525 6 110 0.0 0.0 0.00 0.00 0.03 99 1025.3
20260508023946 7 110 0.0 0.0 0.00 0.00 0.03 99 1025.0
20260508023341 7 109 0.0 0.0 0.00 0.00 0.03 99 1025.3
20260508022723 7 110 0.0 0.0 0.00 0.00 0.03 99 1025.0
20260508021515 7 109 0.0 0.0 0.00 0.00 0.03 99 1024.7
20260508020945 7 110 0.0 0.0 0.00 0.00 0.03 99 1024.7
20260508020349 7 109 0.0 0.0 0.00 0.00 0.03 98 1024.3
20260508015738 7 110 0.0 0.0 0.00 0.00 0.03 98 1024.3
20260508015145 7 110 0.0 0.0 0.00 0.00 0.03 98 1024.3
20260508014517 7 110 0.0 0.0 0.00 0.00 0.03 98 1024.3
20260508012725 8 109 0.0 0.0 0.00 0.00 0.03 97 1024.3
20260508011528 8 110 0.0 0.0 0.00 0.00 0.03 95 1024.0
20260508010935 8 109 0.0 0.0 0.00 0.00 0.03 95 1024.0
20260508010349 8 110 0.0 0.0 0.00 0.00 0.03 94 1023.7
20260508005736 9 110 0.0 0.0 0.00 0.00 0.03 92 1023.7
20260508003908 10 109 0.0 0.0 0.00 0.00 0.03 89 1023.3
20260508003340 10 110 0.0 0.0 0.00 0.00 0.03 88 1023.7
20260508002734 10 110 0.0 0.0 0.00 0.00 0.03 86 1023.7
20260508002110 11 110 0.0 0.0 0.00 0.00 0.03 85 1023.3
20260508001532 11 110 0.0 0.0 0.00 0.00 0.03 85 1023.3
20260508000949 11 110 0.0 0.0 0.00 0.00 0.03 85 1023.3
20260508000335 11 110 0.0 0.0 0.00 0.00 0.03 85 1023.3
20260507235747 12 110 0.0 0.0 0.00 0.00 0.03 84 1023.3
20260507235119 12 110 0.0 0.0 0.00 0.00 0.03 84 1023.3
20260507234551 12 110 0.0 0.0 0.00 0.00 0.03 84 1023.0
20260507233938 13 110 0.0 0.0 0.00 0.00 0.03 85 1023.0
20260507233347 13 109 0.0 0.0 0.00 0.00 0.03 75 1023.0
20260507231535 13 125 0.0 0.0 0.00 0.00 0.03 81 1023.0
20260507225744 15 126 0.0 1.6 0.00 0.00 0.03 69 1022.6
20260507225120 15 127 0.0 0.0 0.00 0.00 0.03 65 1022.6
20260507224527 14 122 0.0 0.0 0.00 0.00 0.03 70 1023.0
20260507223918 14 122 0.0 0.0 0.00 0.00 0.03 71 1023.0
20260507223338 15 123 0.0 0.0 0.00 0.00 0.03 64 1023.0
20260507222719 15 120 0.0 1.6 0.00 0.00 0.03 63 1023.0
20260507221516 15 32 3.2 3.2 0.00 0.00 0.03 57 1023.0
20260507220312 16 91 0.0 0.0 0.00 0.00 0.03 57 1022.6
20260507215738 16 110 0.0 0.0 0.00 0.00 0.03 59 1022.6
20260507215144 16 100 1.6 1.6 0.00 0.00 0.03 60 1022.6
20260507213944 15 108 0.0 0.0 0.00 0.00 0.03 61 1022.6
20260507212737 16 115 0.0 0.0 0.00 0.00 0.03 61 1022.3
20260507211532 15 226 4.8 6.4 0.00 0.00 0.03 58 1022.3
20260507210928 15 90 0.0 1.6 0.00 0.00 0.03 60 1022.6
20260507210344 16 118 1.6 1.6 0.00 0.00 0.03 59 1022.6
20260507204547 15 96 1.6 1.6 0.00 0.00 0.03 61 1022.3
20260507202737 14 118 0.0 0.0 0.00 0.00 0.03 65 1022.6
20260507202152 14 117 0.0 0.0 0.00 0.00 0.03 67 1022.6
20260507201538 14 111 0.0 0.0 0.00 0.00 0.03 70 1022.6
20260507200938 15 133 3.2 4.8 0.00 0.00 0.03 66 1022.3
20260507195752 15 154 6.4 6.4 0.00 0.00 0.03 61 1022.6
20260507195151 14 82 0.0 0.0 0.00 0.00 0.03 70 1022.6
20260507194514 14 98 1.6 1.6 0.00 0.00 0.03 66 1023.0
20260507193951 14 128 1.6 1.6 0.00 0.00 0.03 64 1023.0
20260507192732 13 131 0.0 0.0 0.00 0.00 0.03 70 1023.3
20260507192146 13 138 1.6 3.2 0.00 0.00 0.03 70 1023.3
20260507191535 12 128 0.0 0.0 0.00 0.00 0.03 69 1023.3
20260507190936 13 107 1.6 1.6 0.00 0.00 0.03 70 1023.3
20260507185724 14 126 0.0 1.6 0.00 0.00 0.03 66 1023.3
20260507185150 15 129 4.8 4.8 0.00 0.00 0.03 64 1023.3
20260507184549 13 117 1.6 1.6 0.00 0.00 0.03 69 1023.3
20260507183952 13 214 3.2 3.2 0.00 0.00 0.03 70 1023.3
20260507183308 13 82 0.0 0.0 0.00 0.00 0.03 67 1023.3
20260507182714 13 131 4.8 6.4 0.00 0.00 0.03 66 1023.3
20260507182150 12 107 1.6 1.6 0.00 0.00 0.03 72 1023.7
20260507181510 12 101 1.6 1.6 0.00 0.00 0.03 69 1023.7
20260507180928 13 101 1.6 3.2 0.00 0.00 0.03 68 1023.7
20260507180324 13 109 0.0 0.0 0.00 0.00 0.03 67 1023.7
20260507174520 13 129 3.2 3.2 0.00 0.00 0.03 66 1023.7
20260507173945 13 223 4.8 6.4 0.00 0.00 0.03 66 1023.3
20260507172732 13 172 0.0 3.2 0.00 0.00 0.03 74 1023.7
20260507172129 12 114 1.6 1.6 0.00 0.00 0.03 71 1023.7
20260507170911 13 90 1.6 3.2 0.00 0.00 0.03 69 1023.7
20260507170321 12 148 3.2 3.2 0.00 0.00 0.03 65 1023.7
20260507165750 13 129 1.6 3.2 0.00 0.00 0.03 69 1023.7
20260507165135 12 89 1.6 1.6 0.00 0.00 0.03 69 1023.7
20260507163923 12 160 4.8 4.8 0.00 0.00 0.03 70 1023.7
20260507162722 12 157 3.2 4.8 0.00 0.00 0.03 72 1023.7
20260507162152 12 104 0.0 0.0 0.00 0.00 0.03 72 1024.0
20260507161555 12 150 3.2 3.2 0.00 0.00 0.03 77 1023.7
20260507160923 12 142 3.2 4.8 0.00 0.00 0.03 80 1024.0
20260507160346 12 98 0.0 0.0 0.00 0.00 0.03 80 1023.7
20260507155731 12 93 0.0 0.0 0.00 0.00 0.03 76 1023.7
20260507155123 12 110 1.6 3.2 0.00 0.00 0.03 75 1023.7
20260507154519 12 126 3.2 3.2 0.00 0.00 0.03 76 1023.7
20260507153911 12 126 1.6 1.6 0.00 0.00 0.03 74 1023.7
20260507153316 12 148 3.2 3.2 0.00 0.00 0.03 77 1024.0
20260507152750 12 96 0.0 0.0 0.00 0.00 0.03 86 1023.7
20260507151534 11 114 0.0 0.0 0.00 0.00 0.03 87 1023.7
20260507150347 11 110 0.0 0.0 0.00 0.00 0.03 90 1023.7
20260507145715 11 115 0.0 0.0 0.00 0.00 0.03 86 1023.7
20260507145111 10 114 0.0 1.6 0.00 0.00 0.03 92 1024.0
20260507144515 11 141 1.6 1.6 0.00 0.00 0.03 93 1023.7
20260507143939 10 116 0.0 0.0 0.00 0.00 0.03 91 1023.7
20260507143320 10 117 0.0 0.0 0.00 0.00 0.03 94 1023.7
20260507142123 10 115 1.6 1.6 0.00 0.00 0.03 94 1023.7
20260507141518 10 114 0.0 0.0 0.00 0.00 0.03 97 1023.7
20260507140926 10 123 0.0 0.0 0.00 0.00 0.03 98 1023.7
20260507140342 10 118 0.0 1.6 0.00 0.00 0.03 98 1024.0
20260507135143 10 118 0.0 0.0 0.00 0.00 0.03 98 1024.0
20260507134519 10 118 0.0 0.0 0.00 0.00 0.03 98 1024.0
20260507133319 10 118 0.0 0.0 0.00 0.00 0.03 98 1024.0
20260507132743 10 118 0.0 0.0 0.00 0.00 0.03 99 1023.7
20260507132122 10 118 0.0 0.0 0.00 0.00 0.03 99 1024.0
20260507130911 10 118 0.0 0.0 0.00 0.00 0.03 99 1024.0
20260507130311 9 117 0.0 0.0 0.00 0.00 0.03 99 1024.0
20260507124550 9 118 0.0 0.0 0.00 0.00 0.03 99 1023.7
20260507123943 9 118 0.0 0.0 0.00 0.00 0.03 99 1023.7
20260507123343 9 118 0.0 0.0 0.00 0.00 0.03 99 1024.0
20260507122748 9 118 0.0 0.0 0.00 0.00 0.03 99 1024.0
20260507122127 9 118 0.0 0.0 0.00 0.00 0.03 99 1024.0
20260507120340 9 118 0.0 0.0 0.00 0.00 0.03 99 1024.3
20260507115712 9 118 0.0 0.0 0.00 0.00 0.03 99 1024.0
20260507115146 9 118 0.0 0.0 0.00 0.00 0.03 99 1024.0
20260507114527 8 118 0.0 0.0 0.00 0.00 0.03 99 1024.0
20260507113916 8 118 0.0 0.0 0.00 0.00 0.03 99 1023.7
20260507113326 8 118 0.0 0.0 0.00 0.00 0.03 99 1023.7
20260507112752 8 117 0.0 0.0 0.00 0.00 0.03 99 1023.7
20260507111513 8 114 0.0 0.0 0.00 0.00 0.03 99 1023.3
20260507110940 9 114 0.0 0.0 0.00 0.00 0.03 99 1023.7
20260507110320 9 113 0.0 0.0 0.00 0.00 0.03 99 1023.3
20260507105718 9 113 0.0 0.0 0.00 0.00 0.03 99 1023.3
20260507105143 8 113 0.0 0.0 0.00 0.00 0.03 99 1023.3
20260507104546 8 113 0.0 0.0 0.00 0.00 0.03 99 1023.3
20260507103320 9 114 0.0 0.0 0.00 0.00 0.03 99 1023.3
20260507102729 8 114 0.0 0.0 0.00 0.00 0.03 99 1023.3
20260507101525 9 109 1.6 1.6 0.00 0.00 0.03 99 1023.3
20260507100912 9 104 1.6 1.6 0.00 0.00 0.03 99 1023.0
20260507100332 9 96 0.0 0.0 0.00 0.00 0.03 99 1023.3
20260507095740 10 123 1.6 1.6 0.00 0.00 0.03 99 1023.3
20260507095110 10 96 0.0 0.0 0.00 0.00 0.03 99 1023.0
20260507093930 10 75 1.6 1.6 0.00 0.00 0.03 99 1022.6
20260507093344 10 113 1.6 1.6 0.00 0.00 0.03 99 1022.6
20260507092744 10 110 0.0 0.0 0.00 0.00 0.03 99 1022.6
20260507092130 10 110 0.0 0.0 0.00 0.00 0.03 99 1022.6
20260507091510 10 110 0.0 0.0 0.00 0.00 0.03 99 1022.6
20260507090940 11 111 0.0 0.0 0.00 0.00 0.03 99 1022.6
20260507090318 11 109 0.0 0.0 0.00 0.00 0.03 99 1022.6
20260507085715 11 110 0.0 0.0 0.00 0.00 0.00 99 1023.0
20260507085109 11 110 0.0 0.0 0.00 0.00 0.00 99 1023.0
20260507084541 11 110 0.0 0.0 0.00 0.00 0.00 99 1023.0
20260507083925 11 110 0.0 0.0 0.00 0.00 0.00 99 1023.3
20260507083327 11 110 0.0 0.0 0.00 0.00 0.00 99 1023.0
20260507082121 11 110 0.0 0.0 0.00 0.00 0.00 99 1022.6
20260507081530 11 110 0.0 0.0 0.00 0.00 0.00 99 1023.0
20260507080917 11 110 0.0 0.0 0.00 0.00 0.00 99 1022.6
20260507080337 11 110 0.0 0.0 0.00 0.00 0.00 99 1022.6
20260507075716 11 110 0.0 0.0 0.00 0.00 0.00 99 1022.6
20260507075136 11 110 0.0 0.0 0.00 0.00 0.00 99 1022.3
20260507074541 11 110 0.0 0.0 0.00 0.00 0.00 99 1022.6
20260507073952 11 110 0.0 0.0 0.00 0.00 0.00 99 1022.6
20260507073329 11 110 0.0 0.0 0.00 0.00 0.00 99 1023.0
20260507072748 11 110 0.0 0.0 0.00 0.00 0.00 99 1023.0
20260507072116 11 110 0.0 0.0 0.00 0.00 0.00 99 1023.0
20260507071537 11 110 0.0 0.0 0.00 0.00 0.00 99 1023.0
20260507070310 11 110 0.0 0.0 0.00 0.00 0.00 99 1023.0
20260507065753 11 110 0.0 0.0 0.00 0.00 0.00 99 1023.3
20260507064514 11 110 0.0 0.0 0.00 0.00 0.00 99 1023.3
20260507063913 11 110 0.0 0.0 0.00 0.00 0.00 99 1023.3
20260507063347 11 110 0.0 0.0 0.00 0.00 0.00 99 1023.3
20260507062716 11 110 0.0 0.0 0.00 0.00 0.00 99 1023.3
20260507062130 11 118 0.0 0.0 0.00 0.00 0.00 99 1023.7
20260507061517 11 105 0.0 0.0 0.00 0.00 0.00 99 1023.7
20260507060928 11 104 0.0 0.0 0.00 0.00 0.00 99 1023.7
20260507060317 11 105 0.0 0.0 0.00 0.00 0.00 99 1023.3
20260507055734 11 105 0.0 1.6 0.00 0.00 0.00 99 1023.3
20260507055110 11 105 1.6 1.6 0.00 0.00 0.00 99 1023.7
20260507053926 11 118 0.0 1.6 0.00 0.00 0.00 99 1024.0
20260507052712 11 148 3.2 3.2 0.00 0.00 0.00 99 1023.7
20260507052148 11 117 0.0 0.0 0.00 0.00 0.00 99 1023.3
20260507051524 11 120 0.0 0.0 0.00 0.00 0.00 99 1023.7
20260507050911 11 108 0.0 0.0 0.00 0.00 0.00 99 1023.3
20260507050342 11 108 1.6 1.6 0.00 0.00 0.00 99 1023.3
20260507045750 11 109 0.0 0.0 0.00 0.00 0.00 99 1023.3
20260507045142 11 109 0.0 0.0 0.00 0.00 0.00 99 1023.3
20260507044539 11 109 0.0 0.0 0.00 0.00 0.00 99 1023.3